Overview Statistics Trail Chart Weather Telemetry Raw packets
 

This is the latest recevied weather packets stored in our database for station/object EA7URS-13. If no packets are shown the sender has not sent any weather packets the latest 10 day(s).

<< 13 14 15 16 17 18 19 >>
Time Temp. Humidity Pressure Rain* Wind** Luminosity Snow
1788563938 30° C 56% 1010.6 hPa 0 mm - 0 W/m² -
1788563637 31.11° C 50% 1010.4 hPa 0 mm - 0 W/m² -
1788563336 31.11° C 50% 1010.4 hPa 0 mm - 0 W/m² -
1788563035 31.11° C 50% 1010.1 hPa 0 mm - 0 W/m² -
1788562734 31.11° C 50% 1010.1 hPa 0 mm - 0 W/m² -
1788562433 31.67° C 48% 1010.1 hPa 0 mm - 0 W/m² -
1788562131 31.67° C 48% 1010.1 hPa 0 mm - 0 W/m² -
1788561830 31.67° C 52% 1010.3 hPa 0 mm - 0 W/m² -
1788561529 31.67° C 52% 1010.3 hPa 0 mm - 0 W/m² -
1788561228 31.67° C 50% 1009.8 hPa 0 mm - 0 W/m² -
1788560927 31.67° C 50% 1009.8 hPa 0 mm - 0 W/m² -
1788560626 31.67° C 49% 1010.1 hPa 0 mm - 0 W/m² -
1788560325 31.67° C 49% 1010.1 hPa 0 mm - 0 W/m² -
1788560024 31.67° C 49% 1010.7 hPa 0 mm - 0 W/m² -
1788559723 31.67° C 49% 1010.7 hPa 0 mm - 0 W/m² -
1788559422 32.22° C 48% 1010.3 hPa 0 mm - 0 W/m² -
1788559121 32.22° C 48% 1010.3 hPa 0 mm - 0 W/m² -
1788558820 32.78° C 46% 1010.2 hPa 0 mm - 0 W/m² -
1788558518 32.78° C 46% 1010.2 hPa 0 mm - 0 W/m² -
1788558217 32.78° C 45% 1009.8 hPa 0 mm - 0 W/m² -
1788557916 32.78° C 45% 1009.8 hPa 0 mm - 0 W/m² -
1788557615 32.22° C 46% 1009.8 hPa 0 mm - 0 W/m² -
1788557314 32.22° C 46% 1009.8 hPa 0 mm - 0 W/m² -
1788557013 32.22° C 48% 1010.2 hPa 0 mm - 0 W/m² -
1788556712 32.22° C 48% 1010.2 hPa 0 mm - 0 W/m² -

* Rain latest hour (hover to see other rain measurements)
** Current wind speed in m/s (hover to see current wind gust speed)